Check out our new BloomSky Weather System.

Active alerts

Houston, TX
  Details for Houston, TX Dense Fog Advisory


Thunder radar  blitzortung!


Rain radar more information rain snow radar


Visit our other weather sites:

Template documentation
and downloads

And another site



Weather Underground History page Text

Daily Summary for March 27, 2017 Units:  English    Metric   Both
« Previous Day
Next Day »
Daily Weekly Monthly Yearly Custom
  High: Low: Average:
Temperature: 87.1 °F 70.5 °F 77.1 °F
Dew Point: 72.0 °F 67.8 °F 69.7 °F
Humidity: 96 % 57 % 79 %
Wind Speed: 13.0 mph 0.0 mph 3.6 mph
Wind Gust: 15.0 mph - -
Wind:- - SSE
Pressure: 29.90 in 29.79 in -
Precipitation: 0.00 in    
Historical Graphs
 
 
Tabular Data for March 27, 2017
Time Temperature Dew Point Pressure Wind Wind Speed Wind Gust Humidity Rainfall Rate (Hourly)
00:03 72.3 °F 68.2 °F 29.88 in South 6.0 mph 6.0 mph 87 % 0.00 in
00:08 72.3 °F 68.5 °F 29.88 in SSE 4.0 mph 7.0 mph 88 % 0.00 in
00:13 72.3 °F 68.5 °F 29.88 in SSE 4.0 mph 7.0 mph 88 % 0.00 in
00:18 72.1 °F 68.4 °F 29.88 in SE 5.0 mph 7.0 mph 88 % 0.00 in
00:23 72.1 °F 68.4 °F 29.88 in ESE 7.0 mph 7.0 mph 88 % 0.00 in
00:28 72.1 °F 68.4 °F 29.88 in SE 5.0 mph 8.0 mph 88 % 0.00 in
00:33 72.0 °F 68.2 °F 29.89 in ESE 2.0 mph 8.0 mph 88 % 0.00 in
00:38 72.0 °F 68.2 °F 29.89 in ESE 3.0 mph 8.0 mph 88 % 0.00 in
00:43 72.0 °F 68.2 °F 29.89 in SE 2.0 mph 7.0 mph 88 % 0.00 in
00:48 72.0 °F 68.2 °F 29.89 in SSE 2.0 mph 5.0 mph 88 % 0.00 in
00:53 72.1 °F 68.7 °F 29.88 in SSE 3.0 mph 5.0 mph 89 % 0.00 in
00:58 72.1 °F 68.4 °F 29.88 in SE 6.0 mph 7.0 mph 88 % 0.00 in
01:03 72.1 °F 68.4 °F 29.88 in SSE 5.0 mph 7.0 mph 88 % 0.00 in
01:08 72.1 °F 68.4 °F 29.88 in SSE 2.0 mph 9.0 mph 88 % 0.00 in
01:13 72.1 °F 68.4 °F 29.87 in SE 5.0 mph 9.0 mph 88 % 0.00 in
01:18 72.1 °F 68.7 °F 29.87 in SE 3.0 mph 9.0 mph 89 % 0.00 in
01:23 72.0 °F 68.5 °F 29.87 in South 2.0 mph 9.0 mph 89 % 0.00 in
01:28 72.0 °F 68.5 °F 29.87 in SSE 5.0 mph 9.0 mph 89 % 0.00 in
01:33 72.0 °F 68.5 °F 29.87 in South 3.0 mph 9.0 mph 89 % 0.00 in
01:38 71.8 °F 68.4 °F 29.88 in SSE 3.0 mph 9.0 mph 89 % 0.00 in
01:43 71.8 °F 68.7 °F 29.88 in South 2.0 mph 9.0 mph 90 % 0.00 in
01:48 71.6 °F 68.5 °F 29.88 in SSE 1.0 mph 9.0 mph 90 % 0.00 in
01:54 71.4 °F 68.4 °F 29.88 in SSE 4.0 mph 6.0 mph 90 % 0.00 in
01:59 71.4 °F 68.7 °F 29.88 in South 2.0 mph 7.0 mph 91 % 0.00 in
02:04 71.4 °F 68.7 °F 29.87 in SSW 2.0 mph 7.0 mph 91 % 0.00 in
02:09 71.4 °F 68.7 °F 29.87 in SE 2.0 mph 7.0 mph 91 % 0.00 in
02:14 71.4 °F 68.7 °F 29.87 in SW 3.0 mph 6.0 mph 91 % 0.00 in
02:19 71.4 °F 68.7 °F 29.88 in ESE 4.0 mph 6.0 mph 91 % 0.00 in
02:24 71.4 °F 68.7 °F 29.87 in SSE 2.0 mph 6.0 mph 91 % 0.00 in
02:29 71.4 °F 68.7 °F 29.87 in SE 2.0 mph 5.0 mph 91 % 0.00 in
02:34 71.4 °F 68.9 °F 29.87 in SSE 1.0 mph 5.0 mph 92 % 0.00 in
02:39 71.2 °F 68.7 °F 29.86 in SSE 2.0 mph 5.0 mph 92 % 0.00 in
02:44 71.2 °F 68.7 °F 29.86 in SSE 2.0 mph 4.0 mph 92 % 0.00 in
02:49 71.2 °F 68.7 °F 29.86 in SE 3.0 mph 7.0 mph 92 % 0.00 in
02:54 71.2 °F 69.1 °F 29.86 in South 3.0 mph 7.0 mph 93 % 0.00 in
02:59 71.1 °F 68.9 °F 29.85 in SE 2.0 mph 7.0 mph 93 % 0.00 in
03:04 71.1 °F 68.9 °F 29.85 in SE 4.0 mph 6.0 mph 93 % 0.00 in
03:09 71.1 °F 68.9 °F 29.84 in ESE 5.0 mph 6.0 mph 93 % 0.00 in
03:14 71.1 °F 68.9 °F 29.83 in ESE 4.0 mph 6.0 mph 93 % 0.00 in
03:19 71.1 °F 69.3 °F 29.84 in SE 4.0 mph 6.0 mph 94 % 0.00 in
03:24 70.9 °F 69.1 °F 29.84 in SSE 2.0 mph 6.0 mph 94 % 0.00 in
03:29 70.9 °F 69.1 °F 29.83 in SE 4.0 mph 6.0 mph 94 % 0.00 in
03:34 70.9 °F 69.1 °F 29.84 in South 3.0 mph 7.0 mph 94 % 0.00 in
03:39 70.9 °F 69.1 °F 29.83 in SE 3.0 mph 7.0 mph 94 % 0.00 in
03:44 70.9 °F 69.1 °F 29.84 in ESE 2.0 mph 7.0 mph 94 % 0.00 in
03:49 70.9 °F 69.1 °F 29.84 in SSE 2.0 mph 6.0 mph 94 % 0.00 in
03:54 70.9 °F 69.1 °F 29.84 in South 4.0 mph 6.0 mph 94 % 0.00 in
03:59 70.9 °F 69.4 °F 29.84 in SSE 3.0 mph 6.0 mph 95 % 0.00 in
04:04 71.1 °F 69.6 °F 29.84 in Calm   6.0 mph 95 % 0.00 in
04:09 70.9 °F 69.1 °F 29.84 in Calm   6.0 mph 94 % 0.00 in
04:14 70.9 °F 69.1 °F 29.84 in Calm   6.0 mph 94 % 0.00 in
04:19 70.9 °F 69.4 °F 29.84 in Calm   6.0 mph 95 % 0.00 in
04:24 70.7 °F 69.3 °F 29.86 in SSE 1.0 mph 1.0 mph 95 % 0.00 in
04:29 70.9 °F 69.4 °F 29.86 in Calm   2.0 mph 95 % 0.00 in
04:34 70.9 °F 69.4 °F 29.85 in Calm   2.0 mph 95 % 0.00 in
04:40 70.9 °F 69.4 °F 29.85 in Calm   2.0 mph 95 % 0.00 in
04:45 70.9 °F 69.4 °F 29.85 in Calm   1.0 mph 95 % 0.00 in
04:50 71.1 °F 69.6 °F 29.85 in Calm     95 % 0.00 in
04:55 71.1 °F 69.6 °F 29.85 in Calm   2.0 mph 95 % 0.00 in
05:00 71.1 °F 69.6 °F 29.85 in Calm   2.0 mph 95 % 0.00 in
05:05 71.1 °F 69.6 °F 29.84 in ESE 1.0 mph 2.0 mph 95 % 0.00 in
05:10 71.1 °F 69.6 °F 29.84 in ESE 1.0 mph 2.0 mph 95 % 0.00 in
05:15 71.1 °F 69.6 °F 29.83 in SE 3.0 mph 3.0 mph 95 % 0.00 in
05:20 71.1 °F 69.6 °F 29.83 in East 3.0 mph 3.0 mph 95 % 0.00 in
05:25 71.1 °F 69.6 °F 29.84 in Calm   4.0 mph 95 % 0.00 in
05:30 71.1 °F 69.6 °F 29.83 in East 3.0 mph 4.0 mph 95 % 0.00 in
05:35 71.2 °F 69.8 °F 29.83 in East 2.0 mph 5.0 mph 95 % 0.00 in
05:40 71.2 °F 69.8 °F 29.83 in SE 1.0 mph 5.0 mph 95 % 0.00 in
05:45 71.2 °F 69.8 °F 29.83 in ESE 3.0 mph 5.0 mph 95 % 0.00 in
05:50 71.1 °F 69.6 °F 29.83 in ESE 3.0 mph 4.0 mph 95 % 0.00 in
05:55 71.1 °F 69.6 °F 29.83 in SSE 2.0 mph 4.0 mph 95 % 0.00 in
06:00 71.1 °F 69.6 °F 29.83 in SSE 1.0 mph 5.0 mph 95 % 0.00 in
06:05 71.1 °F 69.6 °F 29.83 in SSE 3.0 mph 5.0 mph 95 % 0.00 in
06:10 71.1 °F 69.6 °F 29.83 in South 2.0 mph 5.0 mph 95 % 0.00 in
06:15 71.1 °F 69.6 °F 29.83 in SSW 2.0 mph 5.0 mph 95 % 0.00 in
06:21 70.9 °F 69.4 °F 29.83 in South 1.0 mph 5.0 mph 95 % 0.00 in
06:26 70.9 °F 69.4 °F 29.83 in SSW 2.0 mph 5.0 mph 95 % 0.00 in
06:31 70.7 °F 69.3 °F 29.84 in South 3.0 mph 5.0 mph 95 % 0.00 in
06:32 70.7 °F 69.3 °F 29.84 in South 2.0 mph 5.0 mph 95 % 0.00 in
06:37 70.5 °F 69.1 °F 29.84 in SSE 1.0 mph 5.0 mph 95 % 0.00 in
06:42 70.9 °F 69.6 °F 29.84 in SSE 4.0 mph 4.0 mph 96 % 0.00 in
06:47 70.9 °F 69.6 °F 29.84 in SSE 3.0 mph 4.0 mph 96 % 0.00 in
06:52 70.9 °F 69.6 °F 29.84 in South 4.0 mph 5.0 mph 96 % 0.00 in
06:57 70.9 °F 69.6 °F 29.84 in SSE 3.0 mph 6.0 mph 96 % 0.00 in
07:02 70.9 °F 69.6 °F 29.84 in SSE 4.0 mph 6.0 mph 96 % 0.00 in
07:07 71.1 °F 69.8 °F 29.84 in SSE 2.0 mph 6.0 mph 96 % 0.00 in
07:12 71.1 °F 69.8 °F 29.84 in SE 4.0 mph 5.0 mph 96 % 0.00 in
07:17 71.1 °F 69.8 °F 29.84 in SE 2.0 mph 5.0 mph 96 % 0.00 in
07:22 71.1 °F 69.8 °F 29.84 in SSE 2.0 mph 5.0 mph 96 % 0.00 in
07:27 71.1 °F 69.8 °F 29.84 in South 2.0 mph 6.0 mph 96 % 0.00 in
07:32 71.1 °F 69.8 °F 29.85 in SSE 1.0 mph 6.0 mph 96 % 0.00 in
07:37 71.1 °F 69.8 °F 29.85 in SW 4.0 mph 6.0 mph 96 % 0.00 in
07:42 71.1 °F 69.8 °F 29.85 in SSW 3.0 mph 5.0 mph 96 % 0.00 in
07:47 71.2 °F 70.0 °F 29.86 in South 2.0 mph 4.0 mph 96 % 0.00 in
07:52 71.2 °F 70.0 °F 29.86 in SE 5.0 mph 8.0 mph 96 % 0.00 in
07:57 71.4 °F 70.2 °F 29.86 in South 2.0 mph 8.0 mph 96 % 0.00 in
08:02 71.6 °F 70.3 °F 29.86 in SSE 2.0 mph 8.0 mph 96 % 0.00 in
08:07 71.8 °F 70.5 °F 29.86 in South 3.0 mph 7.0 mph 96 % 0.00 in
08:12 72.0 °F 70.5 °F 29.86 in SSE 1.0 mph 7.0 mph 95 % 0.00 in
08:17 72.1 °F 70.7 °F 29.86 in ESE 7.0 mph 7.0 mph 95 % 0.00 in
08:22 72.1 °F 70.7 °F 29.86 in South 3.0 mph 9.0 mph 95 % 0.00 in
08:27 72.3 °F 70.5 °F 29.86 in SSE 3.0 mph 11.0 mph 94 % 0.00 in
08:32 72.5 °F 70.7 °F 29.87 in SSE 4.0 mph 11.0 mph 94 % 0.00 in
08:37 72.7 °F 70.9 °F 29.87 in SSW 7.0 mph 11.0 mph 94 % 0.00 in
08:42 72.9 °F 71.1 °F 29.87 in South 6.0 mph 11.0 mph 94 % 0.00 in
08:47 73.2 °F 71.1 °F 29.87 in South 4.0 mph 11.0 mph 93 % 0.00 in
08:52 73.6 °F 71.1 °F 29.87 in SSE 6.0 mph 11.0 mph 92 % 0.00 in
08:57 73.8 °F 71.2 °F 29.87 in SSE 7.0 mph 11.0 mph 92 % 0.00 in
09:02 73.9 °F 71.1 °F 29.88 in South 3.0 mph 11.0 mph 91 % 0.00 in
09:07 73.8 °F 70.9 °F 29.88 in SSW 2.0 mph 11.0 mph 91 % 0.00 in
09:12 73.8 °F 70.7 °F 29.88 in SSE 2.0 mph 9.0 mph 90 % 0.00 in
09:17 73.6 °F 70.5 °F 29.88 in SSW 6.0 mph 11.0 mph 90 % 0.00 in
09:22 73.6 °F 70.5 °F 29.88 in SE 2.0 mph 11.0 mph 90 % 0.00 in
09:27 73.8 °F 70.9 °F 29.88 in SE 2.0 mph 11.0 mph 91 % 0.00 in
09:32 73.9 °F 70.5 °F 29.88 in South 10.0 mph 12.0 mph 89 % 0.00 in
09:37 74.5 °F 71.4 °F 29.88 in South 2.0 mph 13.0 mph 90 % 0.00 in
09:42 75.0 °F 71.6 °F 29.88 in SW 4.0 mph 13.0 mph 89 % 0.00 in
09:47 75.7 °F 71.6 °F 29.88 in SSE 4.0 mph 13.0 mph 87 % 0.00 in
09:52 76.5 °F 72.0 °F 29.88 in SSW 5.0 mph 10.0 mph 86 % 0.00 in
09:57 76.5 °F 71.2 °F 29.89 in South 4.0 mph 11.0 mph 84 % 0.00 in
10:02 76.1 °F 70.9 °F 29.89 in SSW 4.0 mph 12.0 mph 84 % 0.00 in
10:07 76.3 °F 71.1 °F 29.89 in South 1.0 mph 12.0 mph 84 % 0.00 in
10:12 76.5 °F 70.9 °F 29.89 in SSW 4.0 mph 12.0 mph 83 % 0.00 in
10:17 76.8 °F 71.2 °F 29.89 in SSE 2.0 mph 11.0 mph 83 % 0.00 in
10:22 77.4 °F 71.4 °F 29.89 in SSE 7.0 mph 7.0 mph 82 % 0.00 in
10:27 77.7 °F 71.8 °F 29.89 in South 2.0 mph 8.0 mph 82 % 0.00 in
10:32 78.1 °F 70.7 °F 29.89 in SSW 8.0 mph 9.0 mph 78 % 0.00 in
10:37 77.5 °F 70.5 °F 29.89 in SSW 5.0 mph 13.0 mph 79 % 0.00 in
10:42 77.4 °F 70.3 °F 29.89 in South 5.0 mph 13.0 mph 79 % 0.00 in
10:47 77.5 °F 70.9 °F 29.89 in SE 3.0 mph 13.0 mph 80 % 0.00 in
10:53 77.9 °F 70.9 °F 29.89 in SE 5.0 mph 12.0 mph 79 % 0.00 in
10:54 78.3 °F 71.2 °F 29.89 in South 4.0 mph 12.0 mph 79 % 0.00 in
10:59 78.6 °F 70.9 °F 29.89 in South 3.0 mph 11.0 mph 77 % 0.00 in
11:00 78.8 °F 71.1 °F 29.89 in SSW 3.0 mph 11.0 mph 77 % 0.00 in
11:05 79.7 °F 71.1 °F 29.89 in SSW 5.0 mph 10.0 mph 75 % 0.00 in
11:10 80.2 °F 70.9 °F 29.89 in SSE 5.0 mph 11.0 mph 73 % 0.00 in
11:15 80.2 °F 70.0 °F 29.89 in ESE 5.0 mph 15.0 mph 71 % 0.00 in
11:20 80.4 °F 70.2 °F 29.90 in SSW 8.0 mph 15.0 mph 71 % 0.00 in
11:25 80.8 °F 71.2 °F 29.90 in SW 7.0 mph 15.0 mph 73 % 0.00 in
11:30 81.3 °F 70.5 °F 29.90 in SSE 7.0 mph 14.0 mph 70 % 0.00 in
11:35 81.3 °F 70.2 °F 29.90 in SSE 3.0 mph 12.0 mph 69 % 0.00 in
11:40 81.0 °F 69.8 °F 29.90 in SSW 3.0 mph 11.0 mph 69 % 0.00 in
11:45 80.6 °F 70.0 °F 29.90 in SW 5.0 mph 11.0 mph 70 % 0.00 in
11:51 81.0 °F 70.7 °F 29.89 in South 3.0 mph 11.0 mph 71 % 0.00 in
11:56 81.1 °F 70.0 °F 29.90 in South 7.0 mph 12.0 mph 69 % 0.00 in
12:01 81.3 °F 71.1 °F 29.90 in WSW 3.0 mph 12.0 mph 71 % 0.00 in
12:06 81.7 °F 70.5 °F 29.90 in SW 2.0 mph 12.0 mph 69 % 0.00 in
12:11 81.7 °F 70.2 °F 29.89 in South 8.0 mph 12.0 mph 68 % 0.00 in
12:16 82.2 °F 70.2 °F 29.89 in ESE 5.0 mph 11.0 mph 67 % 0.00 in
12:21 82.8 °F 70.2 °F 29.89 in NW 3.0 mph 11.0 mph 66 % 0.00 in
12:26 82.6 °F 70.5 °F 29.89 in South 4.0 mph 12.0 mph 67 % 0.00 in
12:31 82.8 °F 69.8 °F 29.89 in SW 5.0 mph 12.0 mph 65 % 0.00 in
12:36 82.8 °F 70.2 °F 29.89 in ESE 3.0 mph 12.0 mph 66 % 0.00 in
12:41 82.8 °F 70.7 °F 29.89 in SSE 6.0 mph 9.0 mph 67 % 0.00 in
12:46 82.9 °F 70.3 °F 29.88 in South 4.0 mph 9.0 mph 66 % 0.00 in
12:51 82.8 °F 69.8 °F 29.88 in SE 1.0 mph 9.0 mph 65 % 0.00 in
12:56 82.2 °F 69.8 °F 29.88 in SE 8.0 mph 9.0 mph 66 % 0.00 in
13:01 82.2 °F 69.3 °F 29.88 in South 7.0 mph 10.0 mph 65 % 0.00 in
13:06 81.9 °F 69.8 °F 29.88 in Calm   10.0 mph 67 % 0.00 in
13:11 81.9 °F 69.4 °F 29.88 in South 4.0 mph 10.0 mph 66 % 0.00 in
13:16 81.9 °F 69.8 °F 29.88 in SW 5.0 mph 9.0 mph 67 % 0.00 in
13:21 81.9 °F 69.8 °F 29.88 in South 3.0 mph 9.0 mph 67 % 0.00 in
13:26 82.6 °F 70.5 °F 29.87 in South 4.0 mph 9.0 mph 67 % 0.00 in
13:31 83.3 °F 70.7 °F 29.87 in SSW 2.0 mph 8.0 mph 66 % 0.00 in
13:36 83.5 °F 70.5 °F 29.87 in SSW 3.0 mph 7.0 mph 65 % 0.00 in
13:41 83.7 °F 71.1 °F 29.87 in Calm   7.0 mph 66 % 0.00 in
13:46 83.5 °F 70.5 °F 29.86 in SSE 5.0 mph 7.0 mph 65 % 0.00 in
13:51 83.5 °F 70.5 °F 29.86 in South 4.0 mph 10.0 mph 65 % 0.00 in
13:56 83.7 °F 70.7 °F 29.86 in SE 3.0 mph 10.0 mph 65 % 0.00 in
14:01 83.5 °F 69.6 °F 29.86 in SW 3.0 mph 10.0 mph 63 % 0.00 in
14:06 83.8 °F 70.0 °F 29.86 in ESE 5.0 mph 10.0 mph 63 % 0.00 in
14:11 83.8 °F 70.0 °F 29.85 in South 4.0 mph 9.0 mph 63 % 0.00 in
14:16 84.0 °F 70.5 °F 29.85 in South 4.0 mph 9.0 mph 64 % 0.00 in
14:21 83.8 °F 70.0 °F 29.85 in South 3.0 mph 9.0 mph 63 % 0.00 in
14:26 84.0 °F 70.5 °F 29.85 in SW 3.0 mph 9.0 mph 64 % 0.00 in
14:30 84.4 °F 70.3 °F 29.85 in SSW 3.0 mph 9.0 mph 63 % 0.00 in
14:31 84.4 °F 70.9 °F 29.85 in SSW 2.0 mph 6.0 mph 64 % 0.00 in
14:32 84.6 °F 70.5 °F 29.85 in SSE 4.0 mph 6.0 mph 63 % 0.00 in
14:35 84.6 °F 71.1 °F 29.84 in ESE 5.0 mph 6.0 mph 64 % 0.00 in
14:36 84.6 °F 70.2 °F 29.85 in SW 3.0 mph 6.0 mph 62 % 0.00 in
14:38 84.7 °F 71.2 °F 29.85 in SE 5.0 mph 6.0 mph 64 % 0.00 in
14:43 85.3 °F 70.3 °F 29.84 in SSW 4.0 mph 10.0 mph 61 % 0.00 in
14:47 85.3 °F 70.3 °F 29.84 in SE 4.0 mph 10.0 mph 61 % 0.00 in
14:51 84.9 °F 70.0 °F 29.84 in SSW 4.0 mph 10.0 mph 61 % 0.00 in
14:52 84.9 °F 70.0 °F 29.84 in SE 3.0 mph 10.0 mph 61 % 0.00 in
14:54 84.9 °F 70.5 °F 29.84 in SSW 4.0 mph 10.0 mph 62 % 0.00 in
14:56 84.7 °F 69.8 °F 29.84 in South 3.0 mph 8.0 mph 61 % 0.00 in
14:59 84.7 °F 70.3 °F 29.84 in SSW 1.0 mph 8.0 mph 62 % 0.00 in
15:04 84.9 °F 70.9 °F 29.84 in Calm   8.0 mph 63 % 0.00 in
15:09 85.5 °F 70.0 °F 29.83 in SE 3.0 mph 8.0 mph 60 % 0.00 in
15:14 85.5 °F 70.0 °F 29.83 in SSE 3.0 mph 7.0 mph 60 % 0.00 in
15:19 85.3 °F 70.7 °F 29.83 in SSW 3.0 mph 7.0 mph 62 % 0.00 in
15:24 85.6 °F 71.6 °F 29.83 in SW 2.0 mph 7.0 mph 63 % 0.00 in
15:29 86.7 °F 71.2 °F 29.83 in SSW 3.0 mph 7.0 mph 60 % 0.00 in
15:34 86.7 °F 70.2 °F 29.83 in SW 6.0 mph 7.0 mph 58 % 0.00 in
15:39 87.1 °F 70.0 °F 29.82 in ESE 3.0 mph 6.0 mph 57 % 0.00 in
15:44 86.7 °F 69.6 °F 29.82 in SE 3.0 mph 7.0 mph 57 % 0.00 in
15:49 86.4 °F 69.8 °F 29.82 in SSW 3.0 mph 7.0 mph 58 % 0.00 in
15:54 86.4 °F 69.8 °F 29.82 in ESE 1.0 mph 7.0 mph 58 % 0.00 in
15:59 86.2 °F 69.1 °F 29.82 in ESE 4.0 mph 8.0 mph 57 % 0.00 in
16:04 86.0 °F 71.4 °F 29.82 in South 3.0 mph 8.0 mph 62 % 0.00 in
16:09 86.5 °F 71.1 °F 29.81 in WSW 6.0 mph 8.0 mph 60 % 0.00 in
16:14 86.4 °F 69.8 °F 29.81 in SSE 2.0 mph 7.0 mph 58 % 0.00 in
16:19 86.7 °F 70.7 °F 29.81 in SSE 3.0 mph 11.0 mph 59 % 0.00 in
16:24 86.9 °F 70.3 °F 29.81 in SSE 5.0 mph 11.0 mph 58 % 0.00 in
16:29 86.4 °F 69.8 °F 29.81 in SE 4.0 mph 11.0 mph 58 % 0.00 in
16:34 86.4 °F 70.3 °F 29.81 in East 4.0 mph 10.0 mph 59 % 0.00 in
16:39 86.4 °F 69.8 °F 29.81 in ESE 6.0 mph 10.0 mph 58 % 0.00 in
16:44 86.4 °F 69.8 °F 29.80 in South 4.0 mph 10.0 mph 58 % 0.00 in
16:49 86.7 °F 70.2 °F 29.80 in SE 4.0 mph 10.0 mph 58 % 0.00 in
16:54 86.7 °F 70.2 °F 29.80 in SE 3.0 mph 10.0 mph 58 % 0.00 in
16:59 86.5 °F 70.0 °F 29.80 in SW 8.0 mph 10.0 mph 58 % 0.00 in
17:04 85.8 °F 69.8 °F 29.80 in SSE 4.0 mph 10.0 mph 59 % 0.00 in
17:09 85.5 °F 69.4 °F 29.80 in SE 2.0 mph 9.0 mph 59 % 0.00 in
17:14 85.1 °F 69.1 °F 29.79 in SE 2.0 mph 9.0 mph 59 % 0.00 in
17:20 84.9 °F 69.4 °F 29.79 in SSE 6.0 mph 7.0 mph 60 % 0.00 in
17:25 85.3 °F 70.7 °F 29.79 in SE 4.0 mph 10.0 mph 62 % 0.00 in
17:30 85.3 °F 71.2 °F 29.79 in SSE 8.0 mph 11.0 mph 63 % 0.00 in
17:35 84.9 °F 71.4 °F 29.79 in SE 4.0 mph 11.0 mph 64 % 0.00 in
17:40 84.9 °F 71.4 °F 29.79 in SE 4.0 mph 11.0 mph 64 % 0.00 in
17:45 84.6 °F 71.1 °F 29.79 in SSE 6.0 mph 13.0 mph 64 % 0.00 in
17:50 84.0 °F 70.5 °F 29.79 in South 10.0 mph 13.0 mph 64 % 0.00 in
17:55 83.7 °F 70.2 °F 29.79 in SE 13.0 mph 15.0 mph 64 % 0.00 in
18:00 83.5 °F 70.5 °F 29.80 in SE 5.0 mph 15.0 mph 65 % 0.00 in
18:05 83.1 °F 70.2 °F 29.79 in SSE 3.0 mph 15.0 mph 65 % 0.00 in
18:10 82.8 °F 70.2 °F 29.79 in South 7.0 mph 14.0 mph 66 % 0.00 in
18:15 82.8 °F 69.8 °F 29.79 in SSW 4.0 mph 12.0 mph 65 % 0.00 in
18:20 82.6 °F 69.6 °F 29.79 in South 5.0 mph 12.0 mph 65 % 0.00 in
18:25 82.6 °F 69.6 °F 29.79 in SE 3.0 mph 12.0 mph 65 % 0.00 in
18:30 82.6 °F 69.1 °F 29.79 in SSE 6.0 mph 10.0 mph 64 % 0.00 in
18:36 82.6 °F 69.1 °F 29.79 in SSW 6.0 mph 9.0 mph 64 % 0.00 in
18:41 82.4 °F 69.1 °F 29.79 in SSE 2.0 mph 9.0 mph 64 % 0.00 in
18:46 82.0 °F 68.7 °F 29.80 in SE 3.0 mph 8.0 mph 64 % 0.00 in
18:51 81.9 °F 68.9 °F 29.80 in SE 3.0 mph 7.0 mph 65 % 0.00 in
18:56 81.9 °F 68.9 °F 29.80 in SSE 4.0 mph 6.0 mph 65 % 0.00 in
19:01 81.7 °F 68.7 °F 29.80 in SSW 3.0 mph 6.0 mph 65 % 0.00 in
19:06 81.7 °F 68.7 °F 29.80 in SSE 5.0 mph 7.0 mph 65 % 0.00 in
19:11 81.7 °F 68.7 °F 29.80 in South 6.0 mph 11.0 mph 65 % 0.00 in
19:16 81.3 °F 68.9 °F 29.80 in South 5.0 mph 12.0 mph 66 % 0.00 in
19:21 81.0 °F 68.5 °F 29.80 in SSE 5.0 mph 12.0 mph 66 % 0.00 in
19:26 80.8 °F 68.0 °F 29.80 in SE 8.0 mph 13.0 mph 65 % 0.00 in
19:31 80.6 °F 67.8 °F 29.80 in ESE 9.0 mph 13.0 mph 65 % 0.00 in
19:36 80.2 °F 67.8 °F 29.81 in SE 3.0 mph 13.0 mph 66 % 0.00 in
19:41 80.1 °F 68.2 °F 29.81 in East 9.0 mph 11.0 mph 67 % 0.00 in
19:46 79.9 °F 68.4 °F 29.81 in ESE 6.0 mph 13.0 mph 68 % 0.00 in
19:51 79.5 °F 68.5 °F 29.81 in SE 7.0 mph 13.0 mph 69 % 0.00 in
19:56 79.2 °F 68.5 °F 29.81 in SSW 5.0 mph 13.0 mph 70 % 0.00 in
20:01 79.0 °F 68.7 °F 29.81 in SE 7.0 mph 12.0 mph 71 % 0.00 in
20:06 78.6 °F 68.9 °F 29.81 in SW 6.0 mph 14.0 mph 72 % 0.00 in
20:11 78.3 °F 68.5 °F 29.81 in SSE 7.0 mph 14.0 mph 72 % 0.00 in
20:16 78.1 °F 68.7 °F 29.82 in SSW 6.0 mph 14.0 mph 73 % 0.00 in
20:21 78.1 °F 68.7 °F 29.82 in SE 3.0 mph 13.0 mph 73 % 0.00 in
20:26 77.7 °F 68.4 °F 29.82 in South 5.0 mph 13.0 mph 73 % 0.00 in
20:31 77.5 °F 68.5 °F 29.82 in South 5.0 mph 13.0 mph 74 % 0.00 in
20:36 77.5 °F 68.5 °F 29.82 in SE 6.0 mph 11.0 mph 74 % 0.00 in
20:41 77.5 °F 68.5 °F 29.82 in SSE 4.0 mph 11.0 mph 74 % 0.00 in
20:46 77.4 °F 68.9 °F 29.82 in SSE 7.0 mph 11.0 mph 75 % 0.00 in
20:51 77.2 °F 68.7 °F 29.83 in South 3.0 mph 11.0 mph 75 % 0.00 in
20:56 77.0 °F 68.9 °F 29.83 in South 5.0 mph 11.0 mph 76 % 0.00 in
21:01 76.8 °F 68.7 °F 29.83 in South 6.0 mph 12.0 mph 76 % 0.00 in
21:06 76.5 °F 68.7 °F 29.83 in SE 6.0 mph 12.0 mph 77 % 0.00 in
21:11 76.5 °F 68.7 °F 29.83 in SE 4.0 mph 12.0 mph 77 % 0.00 in
21:16 76.3 °F 68.9 °F 29.83 in South 4.0 mph 12.0 mph 78 % 0.00 in
21:21 75.9 °F 68.5 °F 29.84 in SSW 6.0 mph 11.0 mph 78 % 0.00 in
21:26 75.7 °F 68.4 °F 29.84 in SE 4.0 mph 11.0 mph 78 % 0.00 in
21:31 75.7 °F 68.7 °F 29.84 in ESE 7.0 mph 11.0 mph 79 % 0.00 in
21:36 75.6 °F 68.5 °F 29.84 in SE 4.0 mph 11.0 mph 79 % 0.00 in
21:41 75.4 °F 68.7 °F 29.84 in ESE 3.0 mph 10.0 mph 80 % 0.00 in
21:46 75.4 °F 69.1 °F 29.85 in East 7.0 mph 9.0 mph 81 % 0.00 in
21:51 75.0 °F 69.1 °F 29.85 in SSE 4.0 mph 9.0 mph 82 % 0.00 in
21:56 75.0 °F 69.4 °F 29.85 in SE 3.0 mph 10.0 mph 83 % 0.00 in
22:01 74.8 °F 69.3 °F 29.85 in SSE 6.0 mph 10.0 mph 83 % 0.00 in
22:06 74.7 °F 69.4 °F 29.85 in ESE 2.0 mph 10.0 mph 84 % 0.00 in
22:11 74.5 °F 69.6 °F 29.86 in SSE 2.0 mph 8.0 mph 85 % 0.00 in
22:16 74.3 °F 69.4 °F 29.86 in ESE 3.0 mph 7.0 mph 85 % 0.00 in
22:21 74.1 °F 69.3 °F 29.85 in ESE 5.0 mph 8.0 mph 85 % 0.00 in
22:26 74.1 °F 69.6 °F 29.86 in SE 6.0 mph 8.0 mph 86 % 0.00 in
22:31 73.9 °F 69.4 °F 29.86 in SE 4.0 mph 8.0 mph 86 % 0.00 in
22:36 73.8 °F 69.3 °F 29.86 in South 2.0 mph 7.0 mph 86 % 0.00 in
22:41 73.6 °F 69.4 °F 29.86 in SE 3.0 mph 7.0 mph 87 % 0.00 in
22:46 73.4 °F 69.3 °F 29.86 in SSE 3.0 mph 7.0 mph 87 % 0.00 in
22:51 73.2 °F 69.4 °F 29.86 in SSE 4.0 mph 6.0 mph 88 % 0.00 in
22:57 73.2 °F 69.4 °F 29.86 in ESE 2.0 mph 6.0 mph 88 % 0.00 in
23:02 73.2 °F 69.4 °F 29.86 in SSE 2.0 mph 6.0 mph 88 % 0.00 in
23:07 73.0 °F 69.6 °F 29.86 in ESE 2.0 mph 5.0 mph 89 % 0.00 in
23:12 72.9 °F 69.4 °F 29.86 in SE 1.0 mph 4.0 mph 89 % 0.00 in
23:17 72.7 °F 69.6 °F 29.86 in Calm   4.0 mph 90 % 0.00 in
23:22 72.7 °F 69.6 °F 29.86 in SE 2.0 mph 5.0 mph 90 % 0.00 in
23:27 72.7 °F 70.0 °F 29.86 in ESE 1.0 mph 5.0 mph 91 % 0.00 in
23:32 72.7 °F 70.0 °F 29.86 in SSE 2.0 mph 6.0 mph 91 % 0.00 in
23:37 72.3 °F 69.6 °F 29.86 in SE 1.0 mph 6.0 mph 91 % 0.00 in
23:42 72.3 °F 69.6 °F 29.86 in SSE 1.0 mph 6.0 mph 91 % 0.00 in
23:47 72.3 °F 69.8 °F 29.86 in SSE 2.0 mph 4.0 mph 92 % 0.00 in
23:52 72.3 °F 69.8 °F 29.86 in SSE 2.0 mph 5.0 mph 92 % 0.00 in
23:57 72.1 °F 69.6 °F 29.86 in SSE 2.0 mph 5.0 mph 92 % 0.00 in
Spring, Texas: Villages of Bridgestone
Compliments of Weather Underground - 3 mb

Script developed by  Jim McMurry - jmcmurry@mwt.net Adapted for the template by  Wim van der Kuil - Leuven-Template.eu

You find our weather info also at:

UK Metoffice

WeatherCloud

Weather Underground

Mid-South Weather Network

AWEKAS

Citizen Weather Observer Program (CWOP)

HAMweather, WeatherForYou, PWS Weather

Equipment we use:

Weather-station
Davis Vantage Vue

Weather-program
Meteohub

Weather-server
Debian 7.9 x86 (Guest)

Provider
DreamHost

Davis Vantage Vue

Meteohub

Debian 7.9 x86 (Guest)

DreamHost